Date,TemperatureHighF,TemperatureAvgF,TemperatureLowF,DewpointHighF,DewpointAvgF,DewpointLowF,HumidityHigh,HumidityAvg,HumidityLow,PressureMaxIn,PressureMinIn,WindSpeedMaxMPH,WindSpeedAvgMPH,GustSpeedMaxMPH,PrecipitationSumIn
2013-1-1,25,23,21,23,22,20,98,95,91,30.70,30.55,0,0,1,0.00
2013-1-2,23,21,20,21,20,19,97,95,90,30.69,30.58,0,0,0,0.00
2013-1-3,23,20,18,21,19,16,96,94,87,30.58,30.40,0,0,1,0.00
2013-1-4,26,22,20,24,21,19,97,95,89,30.50,30.42,0,0,1,0.00
2013-1-5,26,24,22,25,23,21,98,96,94,30.49,30.24,0,0,0,0.00
2013-1-6,31,25,21,29,24,20,98,96,91,30.26,30.10,0,0,1,0.00
2013-1-7,33,29,25,33,28,24,100,99,97,30.14,29.91,0,0,1,0.00
2013-1-8,33,32,31,33,32,31,100,100,99,30.15,29.78,0,0,1,0.00
2013-1-9,36,32,29,36,32,29,100,100,96,29.87,29.63,0,0,2,0.00
2013-1-10,33,27,22,32,27,21,100,98,92,30.03,29.87,3,0,7,0.00
2013-1-11,25,18,9,22,17,8,98,94,86,30.34,30.04,0,0,1,0.00
2013-1-12,22,11,4,19,9,3,95,93,90,30.51,30.35,0,0,1,0.00
2013-1-13,24,11,0,22,10,-2,97,92,85,30.60,30.49,0,0,1,0.00
2013-1-14,36,25,17,31,23,16,97,93,81,30.52,30.38,5,0,9,0.00
2013-1-15,30,20,13,26,18,12,97,93,83,30.66,30.51,0,0,2,0.00
2013-1-16,24,17,10,22,16,9,96,94,91,30.71,30.61,1,0,2,0.00
2013-1-17,26,22,19,24,20,18,97,94,87,30.68,30.44,3,0,4,0.00
2013-1-18,24,19,15,22,18,14,97,95,90,30.45,30.33,0,0,2,0.00
2013-1-19,26,17,12,24,16,10,97,95,90,30.56,30.45,0,0,0,0.00
2013-1-20,29,16,7,27,15,5,96,94,88,30.64,30.52,1,0,1,0.00
2013-1-21,24,18,15,23,17,14,97,95,93,30.52,30.38,0,0,2,0.00
2013-1-22,22,18,16,20,17,15,96,93,88,30.42,30.26,0,0,1,0.00
2013-1-23,27,23,18,25,22,17,97,95,90,30.27,30.04,0,0,1,0.00
2013-1-24,26,21,12,24,20,11,97,95,92,30.31,30.14,0,0,4,0.00
2013-1-25,33,27,23,31,26,22,98,96,91,30.23,29.99,1,0,3,0.00
2013-1-26,32,28,26,30,27,25,98,95,89,30.02,29.94,1,0,2,0.00
2013-1-27,34,26,18,31,25,16,97,95,90,30.05,29.98,0,0,2,0.00
2013-1-28,34,29,21,34,28,20,100,98,96,30.01,29.93,0,0,1,0.00
2013-1-29,40,34,32,38,34,32,100,99,92,30.24,29.96,2,0,6,0.01
2013-1-30,46,35,30,40,33,30,100,93,75,30.31,30.24,6,0,11,0.26
2013-1-31,45,34,29,38,33,29,100,93,76,30.33,30.24,4,0,9,0.08
2013-2-1,45,31,25,36,29,24,99,94,68,30.52,30.29,0,0,2,0.02
2013-2-2,42,28,20,35,26,19,98,92,72,30.52,30.31,0,0,3,0.01
2013-2-3,44,31,22,36,28,21,98,90,68,30.31,30.17,2,0,11,0.00
2013-2-4,46,35,31,37,32,30,98,92,69,30.18,29.97,0,0,2,0.00
2013-2-5,43,34,29,40,33,28,99,94,76,29.96,29.82,1,0,3,0.02
2013-2-6,40,34,32,39,34,31,99,98,95,30.04,29.93,0,0,1,0.13
2013-2-7,41,33,26,36,31,25,100,92,65,30.14,29.88,2,0,5,0.04
2013-2-8,41,29,20,29,25,19,97,86,58,30.25,30.15,2,0,7,0.00
2013-2-9,42,31,25,31,27,24,96,86,65,30.30,30.16,1,0,10,0.00
2013-2-10,46,29,20,32,26,19,97,88,50,30.34,30.23,2,0,3,0.00
2013-2-11,46,32,23,34,29,23,97,87,62,30.28,30.21,2,0,8,0.00
2013-2-12,47,37,31,35,32,28,95,82,57,30.33,30.18,2,0,8,0.00
2013-2-13,46,38,28,35,32,27,94,77,58,30.42,30.20,5,0,10,0.00
2013-2-14,47,34,27,35,30,25,96,86,59,30.56,30.43,2,0,7,0.00
2013-2-15,47,32,24,36,29,23,97,89,65,30.58,30.31,1,0,3,0.00
2013-2-16,46,32,24,39,30,23,97,91,56,30.32,30.04,1,0,5,0.06
2013-2-17,41,31,25,37,29,24,99,91,64,30.18,30.10,2,0,8,0.01
2013-2-18,37,29,22,31,26,21,96,89,71,30.14,29.82,0,0,1,0.00
2013-2-19,42,30,22,29,25,21,96,82,49,29.99,29.80,1,0,3,0.00
2013-2-20,41,28,19,29,24,18,96,84,57,30.05,29.98,3,0,6,0.00
2013-2-21,42,31,24,33,28,22,97,90,67,30.05,29.99,2,0,4,0.00
2013-2-22,34,32,28,33,31,28,99,97,95,30.00,29.64,1,0,5,0.09
2013-2-23,40,32,28,37,31,27,99,96,90,30.32,29.81,2,0,5,0.36
2013-2-24,41,32,28,37,31,27,98,95,75,30.33,30.02,1,0,3,0.14
2013-2-25,38,33,30,36,32,28,98,96,85,30.22,29.89,0,0,6,0.15
2013-2-26,42,33,27,32,29,25,97,85,50,30.34,30.22,0,0,2,0.07
2013-2-27,45,35,30,33,30,27,98,84,50,30.29,30.21,2,0,5,0.02
2013-2-28,35,33,31,35,33,30,99,97,95,30.37,30.26,0,0,1,0.44
2013-3-1,47,37,32,46,36,32,99,98,93,30.35,30.29,2,0,4,0.10
2013-3-2,52,38,31,44,35,29,99,90,57,30.30,29.95,2,0,10,0.03
2013-3-3,42,35,29,30,28,24,94,79,48,30.15,30.06,3,0,7,0.01
2013-3-8,29,26,28,27,4,-100,94,77,93,30.21,30.17,0,-91,0,0.00
2013-3-9,52,35,22,31,25,20,97,74,30,30.45,30.22,2,0,7,0.00
2013-3-10,47,37,30,34,30,26,93,79,55,30.46,30.31,4,0,8,0.00
2013-3-11,50,35,25,34,28,22,97,80,33,30.39,30.24,2,0,3,0.00
2013-3-12,48,39,33,45,37,32,98,92,80,30.23,30.05,1,0,7,0.07
2013-3-13,54,42,34,44,38,33,98,89,68,30.16,30.09,3,0,6,0.00
2013-3-14,55,40,33,45,36,32,99,88,49,30.14,30.00,2,0,5,0.00
2013-3-15,54,41,34,41,36,32,98,85,55,30.18,30.09,2,0,8,0.00
2013-3-16,49,37,31,40,34,30,99,90,61,30.09,29.78,2,0,7,0.08
2013-3-17,40,34,31,34,31,28,98,90,64,30.10,29.83,3,0,11,0.18
2013-3-18,40,33,27,35,30,25,98,88,61,30.25,30.04,4,0,8,0.23
2013-3-19,43,32,23,32,26,22,96,79,45,30.27,29.82,1,0,5,0.02
2013-3-20,41,34,31,39,33,30,98,97,93,29.87,29.52,6,0,6,0.48
2013-3-21,41,33,28,32,29,25,98,86,54,30.14,29.87,2,0,7,0.05
2013-3-22,41,32,25,31,25,21,96,79,48,30.36,30.14,2,0,8,0.03
2013-3-23,44,31,22,26,21,17,93,72,35,30.40,30.28,2,0,6,0.00
2013-3-24,46,32,21,28,23,19,95,72,38,30.39,30.22,2,0,5,0.00
2013-3-25,49,33,21,29,24,20,96,75,35,30.25,30.03,2,0,5,0.00
2013-3-26,56,37,23,36,28,22,96,75,36,30.08,29.95,1,0,5,0.00
2013-3-27,54,39,30,38,33,29,96,83,48,30.04,29.96,2,0,5,0.00
2013-3-28,56,39,28,41,34,27,98,84,52,30.15,30.04,2,0,3,0.00
2013-3-29,61,42,28,40,33,27,98,75,37,30.26,30.16,4,0,6,0.00
2013-3-30,63,43,27,42,34,26,98,75,39,30.33,30.13,2,0,3,0.00
2013-3-31,67,44,28,44,35,27,98,76,36,30.17,29.94,2,0,4,0.00
2013-4-1,68,46,29,44,37,28,98,75,37,30.06,29.95,3,0,7,0.00
2013-4-2,60,45,32,43,38,32,98,79,53,30.12,30.06,3,0,9,0.00
2013-4-3,64,48,31,42,37,30,98,72,31,30.13,29.99,2,0,6,0.00
2013-4-4,46,42,38,46,40,36,98,94,86,29.99,29.71,0,0,2,0.19
2013-4-5,52,43,39,48,42,39,99,95,80,29.86,29.75,1,0,4,0.34
2013-4-6,50,42,36,44,39,35,99,90,66,29.87,29.73,2,0,6,0.12
2013-4-7,46,38,30,42,35,29,98,89,68,29.80,29.53,3,0,8,0.31
2013-4-8,53,42,32,39,35,30,98,80,54,30.25,29.82,2,0,7,0.00
2013-4-9,55,40,29,41,34,28,98,81,44,30.33,30.18,2,0,4,0.00
2013-4-10,50,44,40,48,40,36,98,88,65,30.18,29.87,5,0,13,0.27
2013-4-11,52,41,30,37,33,28,96,75,47,30.18,30.12,4,0,9,0.00
2013-4-12,50,37,28,37,32,27,96,85,46,30.15,29.61,1,0,6,0.03
2013-4-13,39,34,30,37,32,29,97,93,81,29.94,29.61,2,0,6,0.08
2013-4-14,48,35,28,36,30,27,97,84,52,29.98,29.88,2,0,5,0.01
2013-4-15,43,34,28,39,32,27,97,93,72,30.20,29.93,1,0,2,0.08
2013-4-16,48,38,29,35,30,21,98,78,37,30.42,30.20,2,0,5,0.00
2013-4-17,55,39,25,35,30,24,96,73,39,30.46,30.36,3,0,8,0.00
2013-4-18,55,44,32,39,36,31,96,76,51,30.36,30.16,3,0,8,0.00
2013-4-19,57,46,38,44,40,36,97,80,57,30.16,29.97,2,0,8,0.00
2013-4-20,56,48,40,39,37,36,92,69,48,30.13,30.06,5,0,13,0.00
2013-4-21,53,44,31,37,35,29,93,72,51,30.33,30.09,4,0,7,0.00
2013-4-22,57,40,25,33,25,15,96,64,20,30.52,30.33,3,0,6,0.00
2013-4-23,60,41,26,39,29,23,95,69,26,30.42,30.21,3,0,5,0.00
2013-4-24,66,46,27,36,31,23,97,63,19,30.35,30.02,3,0,9,0.00
2013-4-25,68,50,30,43,37,29,96,67,36,30.11,29.97,3,0,9,0.00
2013-4-26,72,53,37,48,38,30,96,65,22,30.15,30.10,3,0,9,0.00
2013-4-27,60,47,34,42,37,30,97,72,32,30.14,30.07,2,0,8,0.00
2013-4-28,56,47,39,40,38,35,93,70,45,30.09,29.88,5,0,10,0.04
2013-4-29,47,40,35,38,31,25,98,73,46,30.05,29.78,4,0,13,0.11
2013-4-30,50,39,29,32,28,24,92,67,37,30.42,30.05,6,0,8,0.00
2013-5-1,60,42,25,38,27,15,96,64,17,30.59,30.43,2,0,5,0.00
2013-5-2,71,50,29,42,34,28,96,60,22,30.61,30.29,3,0,5,0.00
2013-5-3,75,54,33,45,37,31,96,61,21,30.34,30.14,2,0,8,0.00
2013-5-4,74,54,32,46,37,31,97,60,21,30.30,30.02,4,0,8,0.00
2013-5-5,78,56,34,45,36,29,97,58,17,30.08,29.81,4,0,7,0.00
2013-5-6,82,59,34,46,38,31,97,56,16,29.92,29.70,2,0,6,0.00
2013-5-7,85,62,39,50,44,37,96,60,23,29.87,29.73,3,0,9,0.00
2013-5-8,84,63,43,51,47,41,94,62,27,30.00,29.87,2,0,7,0.00
2013-5-9,86,63,40,50,42,30,97,58,13,30.07,29.96,2,0,8,0.00
2013-5-10,88,63,38,50,42,33,96,56,14,30.12,30.02,2,0,6,0.00
2013-5-11,83,64,45,54,47,42,90,61,24,30.11,29.92,1,0,5,0.00
2013-5-12,70,59,48,53,48,45,91,69,43,30.00,29.92,3,0,7,0.00
2013-5-13,60,52,41,51,46,40,97,84,62,30.08,29.85,1,0,4,0.15
2013-5-14,59,47,36,43,38,34,98,75,41,30.17,30.07,2,0,10,0.01
2013-5-15,66,50,33,45,38,32,98,69,31,30.11,29.91,2,0,4,0.00
2013-5-16,68,53,42,51,44,40,96,77,37,29.95,29.82,2,0,5,0.00
2013-5-17,64,51,39,49,44,38,98,77,51,29.97,29.86,3,0,6,0.00
2013-5-18,63,52,42,43,40,38,86,66,43,30.18,29.97,4,0,8,0.00
2013-5-19,66,50,34,44,39,33,98,69,40,30.29,30.19,5,0,10,0.00
2013-5-20,74,55,34,47,40,33,98,64,26,30.29,29.81,2,0,7,0.00
2013-5-21,49,45,36,47,43,35,97,92,79,29.80,29.64,1,0,5,0.41
2013-5-22,50,42,36,44,39,35,98,92,61,29.96,29.76,2,0,6,0.33
2013-5-23,53,44,39,48,42,38,98,93,70,30.00,29.95,1,0,5,0.17
2013-5-24,60,46,36,49,42,35,98,87,52,30.00,29.93,3,0,5,0.05
2013-5-25,61,48,34,48,40,33,98,79,43,30.00,29.94,2,0,4,0.00
2013-5-26,62,49,38,51,44,37,98,85,63,29.97,29.91,1,0,5,0.02
2013-5-27,53,46,34,50,44,33,98,92,75,29.93,29.76,1,0,2,0.13
2013-5-28,64,52,41,51,45,40,98,80,50,29.81,29.72,2,0,6,0.00
2013-5-29,59,48,40,51,44,39,97,86,62,29.90,29.64,1,0,7,0.05
2013-5-30,61,48,35,43,38,34,98,72,44,30.18,29.90,6,0,10,0.00
2013-5-31,69,52,34,45,38,31,98,66,26,30.27,30.17,3,0,6,0.00
2013-6-1,71,55,39,46,43,38,96,68,36,30.21,29.98,4,0,6,0.00
2013-6-2,68,54,41,47,43,39,95,69,41,30.02,29.90,6,1,9,0.00
2013-6-3,75,58,38,50,43,36,98,63,31,30.05,29.94,3,0,10,0.00
2013-6-4,79,60,39,53,45,38,97,64,26,30.12,29.95,2,0,4,0.00
2013-6-5,82,63,44,52,48,43,96,64,29,30.01,29.91,5,0,7,0.00
2013-6-6,85,65,44,51,46,36,96,57,19,29.97,29.85,3,0,7,0.00
2013-6-7,72,59,49,53,48,43,89,68,52,30.00,29.88,3,0,11,0.00
2013-6-8,77,59,42,46,43,37,91,59,25,30.05,29.94,4,0,10,0.00
2013-6-9,72,57,41,45,40,35,95,59,30,29.97,29.88,5,1,11,0.00
2013-6-10,74,56,35,44,39,31,96,58,21,29.93,29.72,5,0,8,0.00
2013-6-11,63,53,42,45,40,36,91,65,38,30.02,29.79,4,1,9,0.00
2013-6-12,68,52,35,41,38,34,97,65,35,30.07,30.00,3,0,8,0.00
2013-6-13,68,52,35,44,40,34,96,67,36,30.13,30.02,4,1,9,0.00
2013-6-14,70,55,38,46,42,37,95,67,40,30.14,30.00,4,0,9,0.00
2013-6-15,78,58,36,58,45,35,97,67,32,30.03,29.88,2,0,5,0.00
2013-6-16,83,64,45,54,48,42,95,62,25,29.99,29.85,5,0,7,0.00
2013-6-17,78,64,52,53,49,46,91,61,33,29.98,29.77,5,0,9,0.00
2013-6-18,71,57,47,54,49,43,97,78,39,29.86,29.77,1,0,5,0.48
2013-6-19,60,53,49,51,48,45,98,85,63,29.91,29.78,4,0,11,0.02
2013-6-20,57,51,47,48,46,43,92,81,64,30.02,29.84,3,0,8,0.01
2013-6-22,68,54,55,57,38,-100,86,70,68,29.86,29.83,0,-53,0,0.00
2013-6-23,70,59,47,58,52,45,96,80,56,29.86,29.59,2,0,2,0.02
2013-6-24,60,56,46,57,54,45,98,93,79,29.68,29.54,1,0,3,0.14
2013-6-25,65,54,43,56,50,42,98,87,64,29.83,29.68,3,0,6,0.03
2013-6-26,67,56,46,58,51,45,98,85,57,30.08,29.83,1,0,5,0.01
2013-6-27,68,57,49,60,54,48,98,89,67,30.21,30.07,0,0,3,0.04
2013-6-28,83,67,53,68,59,52,98,79,45,30.21,29.98,3,0,6,0.00
2013-6-29,81,66,54,69,62,53,98,86,51,30.04,29.94,1,0,4,0.05
2013-6-30,90,70,51,68,59,50,98,74,35,30.01,29.86,3,0,5,0.00
2013-7-1,92,71,54,71,61,53,98,75,31,29.97,29.82,1,0,3,0.00
2013-7-2,97,75,57,70,57,49,96,61,20,29.94,29.84,3,0,11,0.00
2013-7-3,86,71,55,57,51,44,89,53,23,29.97,29.84,5,0,9,0.00
2013-7-4,79,65,48,51,46,40,91,56,25,29.91,29.82,6,1,10,0.00
2013-7-5,73,62,48,51,48,44,88,62,41,29.87,29.80,5,0,9,0.00
2013-7-6,84,62,45,57,49,44,96,70,25,29.89,29.73,2,0,5,0.00
2013-7-7,85,65,50,62,55,48,96,75,30,29.85,29.72,2,0,5,0.05
2013-7-8,82,62,49,60,53,48,98,77,35,30.00,29.83,2,0,5,0.01
2013-7-9,89,69,49,59,53,48,97,64,24,30.05,29.87,2,0,5,0.00
2013-7-10,85,68,51,58,50,44,96,59,29,29.91,29.76,5,0,10,0.00
2013-7-11,72,63,56,50,44,40,75,53,31,29.89,29.80,3,0,11,0.00
2013-7-12,66,56,47,49,43,40,82,63,43,30.00,29.88,1,0,9,0.00
2013-7-13,79,60,39,49,41,28,96,59,17,30.12,30.00,4,0,7,0.00
2013-7-14,85,63,41,47,40,30,96,53,14,30.08,29.88,3,0,7,0.00
2013-7-15,83,63,42,48,42,32,92,53,16,29.98,29.84,1,0,4,0.00
2013-7-16,87,65,44,61,49,41,94,62,20,29.97,29.77,2,0,5,0.01
2013-7-17,86,70,54,62,54,46,95,62,28,30.02,29.83,3,0,7,0.00
2013-7-18,89,68,47,54,49,39,96,57,18,30.09,29.94,3,0,6,0.00
2013-7-19,92,70,46,56,48,38,95,55,15,30.03,29.86,2,0,8,0.00
2013-7-20,90,69,48,53,49,44,87,56,21,29.92,29.77,2,0,12,0.00
2013-7-21,89,70,48,56,51,45,89,55,26,29.80,29.70,4,0,10,0.00
2013-7-22,87,70,49,56,52,46,90,58,29,29.90,29.77,3,0,10,0.00
2013-7-23,93,70,50,57,52,40,93,59,16,29.94,29.80,3,0,7,0.00
2013-7-24,92,73,51,58,50,38,90,53,16,29.92,29.81,3,0,7,0.00
2013-7-25,92,72,50,55,48,39,91,51,16,29.95,29.88,4,0,12,0.00
2013-7-26,92,71,48,50,45,36,86,46,15,30.00,29.90,4,0,8,0.00
2013-7-27,83,66,49,54,46,40,85,51,24,29.97,29.82,4,0,7,0.00
2013-7-28,82,67,46,51,47,42,90,54,24,29.86,29.75,4,0,9,0.00
2013-7-29,84,67,47,55,50,43,94,59,24,29.88,29.77,1,0,5,0.00
2013-7-30,86,67,52,57,51,41,89,62,21,30.02,29.88,2,0,5,0.00
2013-7-31,82,64,51,64,54,47,90,72,35,30.04,29.88,1,0,5,0.01
2013-8-1,78,63,48,61,53,47,97,74,42,29.94,29.80,2,0,9,0.00
2013-8-2,70,60,55,57,53,51,97,78,57,30.03,29.91,4,0,6,0.11
2013-8-3,79,64,51,62,55,49,94,76,44,30.06,29.93,1,0,5,0.00
2013-8-4,84,66,50,62,56,49,98,74,34,30.01,29.87,2,0,6,0.00
2013-8-5,89,69,50,61,54,49,97,65,28,29.94,29.80,6,0,6,0.00
2013-8-6,90,70,48,58,48,33,96,56,13,29.91,29.79,2,0,7,0.00
2013-8-7,89,69,48,55,50,45,92,56,25,29.89,29.79,2,0,6,0.00
2013-8-8,88,70,51,59,53,46,90,59,23,29.90,29.78,2,0,7,0.00
2013-8-9,92,73,53,62,55,47,93,60,22,29.85,29.67,1,0,7,0.00
2013-8-10,87,71,61,69,62,58,98,75,38,29.88,29.73,3,0,5,0.38
2013-8-11,79,65,56,65,59,55,98,85,51,29.97,29.82,2,0,8,0.15
2013-8-12,82,65,49,62,55,48,98,76,32,29.97,29.85,4,0,5,0.04
2013-8-13,85,67,51,60,53,44,98,68,24,30.00,29.85,2,0,3,0.01
2013-8-14,80,64,49,66,55,47,97,74,46,29.91,29.80,1,0,6,0.01
2013-8-15,75,65,58,66,59,55,94,82,61,29.92,29.84,1,0,4,0.00
2013-8-16,81,65,49,60,54,48,97,72,39,29.96,29.86,4,0,6,0.01
2013-8-17,75,63,50,60,53,49,95,71,45,29.98,29.92,2,0,9,0.00
2013-8-18,81,63,47,56,50,46,96,67,33,30.03,29.95,4,0,8,0.00
2013-8-19,77,63,50,56,51,47,92,68,41,30.00,29.94,3,0,9,0.00
2013-8-20,79,62,44,53,48,42,95,65,29,30.05,29.95,3,0,6,0.00
2013-8-21,82,62,42,59,48,40,95,66,26,30.07,29.89,1,0,3,0.00
2013-8-22,84,64,45,61,52,43,96,70,27,29.95,29.73,1,0,3,0.00
2013-8-23,75,65,58,63,56,51,97,75,48,29.78,29.71,2,0,6,0.02
2013-8-24,76,62,49,54,50,47,94,68,41,29.81,29.72,4,0,6,0.00
2013-8-25,73,60,47,59,50,45,93,72,41,29.88,29.76,1,0,4,0.01
2013-8-26,75,62,49,58,53,48,95,77,44,29.90,29.79,1,0,6,0.01
2013-8-27,76,62,51,59,54,50,97,78,46,29.93,29.75,0,0,3,0.00
2013-8-28,77,63,53,64,57,51,96,82,50,29.86,29.76,3,0,4,0.02
2013-8-29,66,60,56,63,59,55,98,94,78,29.97,29.85,0,0,5,0.16
2013-8-30,72,60,49,58,52,47,98,78,46,30.10,29.97,2,0,8,0.01
2013-8-31,79,59,41,58,49,40,98,74,36,30.09,29.86,1,0,4,0.00
2013-9-1,86,65,45,61,52,44,98,70,26,29.90,29.66,2,0,5,0.01
2013-9-2,85,67,51,60,55,50,97,69,31,29.85,29.70,3,0,6,0.00
2013-9-3,76,64,55,61,56,52,95,76,52,29.95,29.84,0,0,7,0.00
2013-9-4,84,66,52,65,56,50,96,73,39,29.95,29.83,3,0,4,0.00
2013-9-5,77,65,57,66,61,54,98,87,62,29.95,29.74,0,0,9,0.02
2013-9-6,63,58,54,61,57,53,98,96,82,30.07,29.85,0,0,2,0.18
2013-9-7,61,57,54,60,56,53,99,97,95,30.07,30.01,0,0,0,0.13
2013-9-8,76,61,50,63,56,49,99,84,53,30.07,29.92,1,0,8,0.00
2013-9-9,81,63,50,61,55,49,98,78,39,29.98,29.86,1,0,5,0.00
2013-9-10,82,63,47,63,54,46,98,78,39,30.00,29.89,0,0,3,0.00
2013-9-11,85,63,47,62,54,46,98,76,30,30.05,29.93,2,0,3,0.00
2013-9-12,87,64,48,63,55,47,98,76,32,30.00,29.79,0,0,2,0.00
2013-9-13,87,67,50,65,57,49,98,76,37,29.85,29.69,1,0,6,0.00
2013-9-14,87,67,50,67,58,49,98,77,32,29.82,29.70,1,0,6,0.00
2013-9-15,83,67,54,63,57,51,96,74,34,29.74,29.54,3,0,8,0.26
2013-9-16,68,59,52,57,54,49,98,84,58,29.81,29.68,3,0,7,0.00
2013-9-17,65,54,46,53,48,44,98,81,60,29.82,29.69,4,0,7,0.00
2013-9-18,64,52,42,49,44,40,95,77,51,30.06,29.82,3,0,7,0.00
2013-9-19,67,49,33,50,41,32,98,78,42,30.11,29.91,1,0,4,0.00
2013-9-20,69,52,34,55,44,33,98,80,42,29.92,29.57,0,0,4,0.00
2013-9-21,66,54,44,52,46,42,98,77,43,29.65,29.58,3,0,7,0.00
2013-9-22,55,47,42,50,44,40,98,92,75,29.73,29.60,0,0,0,0.19
2013-9-23,53,47,42,51,46,41,98,95,84,29.93,29.73,0,0,2,0.03
2013-9-24,57,47,38,46,42,37,98,85,55,29.92,29.77,3,0,7,0.00
2013-9-25,60,46,35,49,41,34,98,85,52,29.96,29.81,2,0,9,0.02
2013-9-26,58,46,37,47,41,36,98,85,54,30.10,29.96,0,0,5,0.00
2013-9-27,49,43,34,46,41,33,97,94,83,30.11,29.88,0,0,1,0.11
2013-9-28,48,45,40,47,44,39,98,97,96,29.88,29.40,0,0,1,0.77
2013-9-29,50,44,38,49,44,37,99,97,88,29.58,29.30,2,0,2,0.22
2013-9-30,45,39,34,45,39,34,98,97,95,29.93,29.40,1,0,3,1.11
2013-10-1,49,40,33,45,39,32,99,95,79,30.13,29.93,2,0,4,0.08
2013-10-2,48,41,35,45,40,35,99,96,87,30.15,30.05,0,0,2,0.21
2013-10-3,53,42,32,47,39,31,99,91,70,30.47,30.16,2,0,5,0.00
2013-10-4,58,40,30,47,36,29,98,87,47,30.56,30.41,0,0,2,0.00
2013-10-5,61,43,30,48,39,30,98,85,52,30.45,30.27,1,0,2,0.00
2013-10-6,61,44,32,49,40,31,98,88,56,30.28,29.92,1,0,2,0.00
2013-10-7,56,44,36,49,40,35,98,89,67,29.95,29.87,2,0,6,0.00
2013-10-8,48,42,36,45,40,34,98,93,77,30.07,29.88,5,0,5,0.23
2013-10-9,55,40,28,45,36,27,98,87,52,30.17,29.92,1,0,2,0.00
2013-10-12,52,45,41,45,34,-100,95,81,64,30.19,30.07,0,-26,1,0.00
2013-10-13,57,43,32,44,38,31,98,85,54,30.32,30.19,0,0,4,0.00
2013-10-19,38,33,35,36,10,-100,95,78,94,30.19,30.17,0,-91,0,0.00
2013-10-20,64,42,30,51,39,29,98,89,55,30.23,30.11,0,0,1,0.00
2013-10-21,64,43,31,52,40,30,98,89,51,30.24,30.13,0,0,3,0.00
2013-10-22,63,43,30,51,39,29,98,89,58,30.23,30.10,0,0,2,0.00
2013-10-23,62,42,30,51,39,29,98,90,59,30.20,30.10,0,0,2,0.00
2013-10-24,59,42,30,49,39,29,98,90,65,30.18,30.07,0,0,2,0.00
2013-10-25,59,40,29,49,37,28,98,91,65,30.31,30.17,0,0,1,0.00
2013-10-26,57,39,29,48,37,28,98,91,67,30.35,30.10,0,0,1,0.00
2013-10-27,52,42,35,46,40,34,98,92,69,30.09,29.82,0,0,3,0.00
2013-10-28,53,41,28,40,30,-100,95,75,36,29.98,29.89,1,-10,5,0.00
2013-10-29,50,32,23,35,28,22,97,85,46,30.07,29.97,1,0,2,0.00
2013-10-30,56,37,25,40,30,24,97,79,40,30.10,30.05,4,0,6,0.00
2013-10-31,56,45,34,45,40,33,96,84,63,30.20,30.04,2,0,7,0.00
2013-11-1,56,40,29,48,37,28,98,90,65,30.28,29.92,0,0,1,0.00
2013-11-2,43,39,33,42,39,33,98,97,95,29.92,29.51,1,0,2,0.76
2013-11-3,40,35,27,39,33,26,98,94,77,30.09,29.80,0,0,8,0.03
2013-11-4,39,29,22,31,26,21,97,89,54,30.21,30.09,2,0,2,0.00
2013-11-5,37,33,30,36,32,28,97,96,94,30.24,30.14,0,0,1,0.10
2013-11-6,36,33,31,36,33,30,98,97,94,30.39,30.25,0,0,2,0.04
2013-11-7,36,33,32,35,32,32,98,98,97,30.28,29.80,0,0,0,0.26
2013-11-8,43,35,29,41,34,29,99,97,88,30.20,29.94,1,0,5,0.26
2013-11-9,37,32,29,37,32,28,98,98,97,30.23,30.17,0,0,0,0.14
2013-11-10,40,36,32,40,36,32,99,98,98,30.30,30.18,0,0,0,0.12
2013-11-11,44,40,37,43,39,37,99,98,95,30.39,30.27,0,0,1,0.01
2013-11-12,46,41,38,45,41,37,99,98,95,30.36,30.24,0,0,1,0.07
2013-11-13,48,40,34,47,39,33,99,97,90,30.38,30.27,1,0,7,0.01
2013-11-14,48,36,30,43,34,29,99,93,73,30.27,30.00,3,0,6,0.00
2013-11-15,43,36,29,36,33,28,98,88,67,30.00,29.25,4,0,8,0.24
2013-11-16,39,33,30,38,33,30,99,97,92,29.70,29.26,0,0,4,0.24
2013-11-17,34,32,30,33,32,29,98,98,97,29.89,29.69,0,0,0,0.08
2013-11-18,44,37,33,44,37,32,99,99,98,29.87,29.62,0,0,1,0.74
2013-11-19,44,37,29,41,34,28,99,90,71,29.95,29.52,2,0,11,0.19
2013-11-20,35,26,19,28,22,16,96,84,50,30.55,29.95,0,0,2,0.00
2013-11-21,32,22,14,24,17,13,95,85,55,30.78,30.55,0,0,1,0.00
2013-11-22,34,22,14,24,18,12,95,84,56,30.88,30.76,0,0,1,0.00
2013-11-23,34,22,14,25,18,12,96,86,62,30.76,30.45,0,0,1,0.00
2013-11-24,37,26,18,26,22,17,95,86,61,30.47,30.37,0,0,2,0.01
2013-11-25,40,28,19,30,24,18,96,87,59,30.52,30.46,0,0,1,0.00
2013-11-26,35,26,19,30,24,18,96,91,78,30.46,30.27,0,0,0,0.00
2013-11-27,38,28,22,31,26,21,96,91,75,30.27,30.18,0,0,0,0.00
2013-11-28,37,25,18,33,23,16,97,93,82,30.30,30.20,0,0,1,0.00
2013-11-29,33,27,21,32,26,20,96,95,90,30.34,30.27,0,0,2,0.00
2013-11-30,38,31,27,37,30,26,98,96,93,30.35,30.17,0,0,1,0.02
2013-12-1,32,32,31,32,32,31,98,98,97,30.16,29.67,0,0,2,0.81
2013-12-2,34,30,26,32,30,25,98,96,93,30.04,29.70,0,0,3,0.11
2013-12-3,30,22,17,27,21,15,97,94,89,30.37,30.04,0,0,1,0.00
2013-12-4,23,18,14,21,16,12,94,92,87,30.44,30.37,0,0,1,0.00
2013-12-5,18,15,8,16,13,6,93,89,84,30.39,30.33,1,0,1,0.00
2013-12-6,17,13,6,14,10,3,92,90,84,30.39,30.32,0,0,2,0.00
2013-12-7,5,0,-3,3,-2,-6,90,88,87,30.45,30.36,0,0,0,0.00
2013-12-11,20,17,16,18,16,14,93,93,92,30.44,30.41,0,0,0,0.00
2013-12-12,28,23,16,26,22,14,96,93,85,30.41,30.19,0,0,0,0.00
2013-12-13,35,28,21,34,27,19,98,96,94,30.46,30.23,0,0,2,0.03
2013-12-14,37,32,29,37,31,28,99,98,97,30.45,30.29,1,0,4,0.01
2013-12-15,48,41,34,40,37,33,99,86,70,30.32,30.25,2,0,8,0.81
2013-12-16,42,34,27,35,30,26,96,89,73,30.45,30.31,2,0,6,0.00
2013-12-17,42,30,22,37,28,20,97,94,82,30.33,30.02,2,0,7,0.00
2013-12-18,43,35,22,37,28,19,91,75,57,30.11,29.92,2,0,7,0.00
2013-12-19,33,23,15,23,18,13,94,81,44,30.34,30.10,0,0,1,0.00
2013-12-20,32,27,20,32,25,17,97,93,86,30.14,29.68,0,0,2,0.00
2013-12-21,32,26,20,31,25,19,96,95,91,30.16,29.82,0,0,2,0.00
2013-12-22,32,28,25,31,27,24,97,95,92,30.32,30.16,0,0,1,0.00
2013-12-23,37,32,28,37,31,27,98,98,97,30.45,30.05,1,0,2,0.23
2013-12-24,35,28,22,34,28,21,98,97,95,30.59,30.45,0,0,4,0.01
2013-12-25,31,24,17,30,22,16,97,95,94,30.60,30.48,0,0,0,0.00
2013-12-26,33,25,20,31,24,19,98,95,92,30.47,30.36,0,0,1,0.00
2013-12-27,32,27,21,32,27,20,98,97,95,30.36,30.14,0,0,2,0.01
2013-12-28,34,27,23,33,27,22,98,97,96,30.53,30.35,0,0,1,0.00
2013-12-29,40,30,22,38,28,21,99,95,90,30.50,30.27,1,0,6,0.03
2013-12-30,32,29,26,31,28,25,98,96,95,30.34,30.14,1,0,1,0.00
2013-12-31,44,32,27,39,30,26,99,94,74,30.38,30.16,1,0,4,0.04
2014-1-1,36,28,23,33,27,22,98,94,83,30.47,30.38,0,0,2,0.01
2014-1-2,33,31,28,33,30,27,98,96,93,30.38,29.86,0,0,2,0.26